START_TIME,STEP,MOV.,M15,t_acc.,M20,t_acc.
1981-08-25 03:00:44.900 ,0,0,0.,24.0,0.,24.0
1981-08-25 03:01:08.900 ,0,1,0.,24.0,0.,24.0
1981-08-25 03:01:32.900 ,0,0,0.,24.0,0.,24.0
1981-08-25 03:01:56.900 ,1,1,0.,24.0,0.,24.0
1981-08-25 03:02:20.900 ,1,0,0.,24.0,0.,24.0
1981-08-25 03:02:44.900 ,2,1,0.,24.0,0.,24.0
1981-08-25 03:03:08.900 ,2,0,0.,24.0,0.,24.0
1981-08-25 03:03:32.900 ,3,1,0.,24.0,0.,24.0
1981-08-25 03:03:56.900 ,3,0,0.,24.0,0.,24.0
1981-08-25 03:04:20.900 ,4,1,0.,24.0,0.,24.0
1981-08-25 03:04:44.900 ,4,0,0.,24.0,0.,24.0
1981-08-25 03:05:08.900 ,5,1,0.,24.0,0.,24.0
1981-08-25 03:05:32.900 ,5,0,0.,24.0,0.,24.0
1981-08-25 03:05:56.900 ,6,1,0.,24.0,0.,24.0
1981-08-25 03:06:20.900 ,6,0,0.,24.0,0.,24.0
1981-08-25 03:06:44.900 ,7,1,0.,24.0,0.,24.0
1981-08-25 03:07:08.900 ,7,0,0.,24.0,0.,24.0
1981-08-25 03:07:32.900 ,7,1,0.,24.0,0.,24.0
1981-08-25 03:07:56.900 ,7,0,0.,24.0,0.,24.0
1981-08-25 03:08:20.900 ,6,1,0.,24.0,0.,24.0
1981-08-25 03:08:44.900 ,6,0,0.,24.0,0.,24.0
1981-08-25 03:09:08.900 ,5,1,0.,24.0,0.,24.0
1981-08-25 03:09:32.900 ,5,0,0.,24.0,0.,24.0
1981-08-25 03:09:56.900 ,4,1,0.,24.0,0.,24.0
1981-08-25 03:10:20.900 ,4,0,0.,24.0,0.,24.0
1981-08-25 03:10:44.900 ,3,1,0.,24.0,0.,24.0
1981-08-25 03:11:08.900 ,3,0,0.,24.0,0.,24.0
1981-08-25 03:11:32.900 ,2,1,0.,24.0,0.,24.0
1981-08-25 03:11:56.900 ,2,0,0.,24.0,0.,24.0
1981-08-25 03:12:20.900 ,1,1,0.,24.0,0.,24.0
1981-08-25 03:12:44.900 ,1,0,0.,24.0,0.,24.0
1981-08-25 03:13:08.900 ,0,1,0.,24.0,0.,24.0
1981-08-25 03:13:32.900 ,0,0,0.,24.0,0.,24.0
1981-08-25 03:13:56.900 ,0,1,0.,24.0,0.,24.0
1981-08-25 03:14:20.900 ,0,0,0.,24.0,0.,24.0
1981-08-25 03:14:44.900 ,1,1,0.,24.0,0.,24.0
1981-08-25 03:15:08.900 ,1,0,0.,24.0,0.,24.0
1981-08-25 03:15:32.900 ,2,1,0.,24.0,0.,24.0
1981-08-25 03:15:56.900 ,2,0,0.,24.0,0.,24.0
1981-08-25 03:16:20.900 ,3,1,0.,24.0,0.,24.0
1981-08-25 03:16:44.900 ,3,0,0.,24.0,0.,24.0
1981-08-25 03:17:08.900 ,4,1,0.,24.0,0.,24.0
1981-08-25 03:17:32.900 ,4,0,0.,24.0,0.,24.0
1981-08-25 03:17:56.900 ,5,1,0.,24.0,0.,24.0
1981-08-25 03:18:20.900 ,5,0,0.,24.0,0.,24.0
1981-08-25 03:18:44.900 ,6,1,0.,24.0,0.,24.0
1981-08-25 03:19:08.900 ,6,0,0.,24.0,0.,24.0
1981-08-25 03:19:32.900 ,7,1,0.,24.0,0.,24.0
1981-08-25 03:19:56.900 ,7,0,0.,24.0,0.,24.0
1981-08-25 03:20:20.900 ,7,1,0.,24.0,0.,24.0
1981-08-25 03:20:44.900 ,7,0,0.,24.0,0.,24.0
1981-08-25 03:21:08.900 ,6,1,0.,24.0,0.,24.0
1981-08-25 03:21:32.900 ,6,0,0.,24.0,0.,24.0
1981-08-25 03:21:56.900 ,5,1,0.,24.0,0.,24.0
1981-08-25 03:22:20.900 ,5,0,0.,24.0,0.,24.0
1981-08-25 03:22:44.900 ,4,1,0.,24.0,0.,24.0
1981-08-25 03:23:08.900 ,4,0,0.,24.0,0.,24.0
1981-08-25 03:23:32.900 ,3,1,0.,24.0,0.,24.0
1981-08-25 03:23:56.900 ,3,0,0.,24.0,0.,24.0
1981-08-25 03:24:20.900 ,2,1,0.,24.0,0.,24.0
1981-08-25 03:24:44.900 ,2,0,0.,24.0,0.,24.0
1981-08-25 03:25:08.900 ,1,1,0.,24.0,0.,24.0
1981-08-25 03:25:32.900 ,1,0,0.,24.0,0.,24.0
1981-08-25 03:25:56.900 ,0,1,0.,24.0,0.,24.0
1981-08-25 03:26:20.900 ,0,0,0.,24.0,0.,24.0
1981-08-25 03:26:44.900 ,0,1,0.,24.0,0.,24.0
1981-08-25 03:27:08.900 ,0,0,0.,24.0,0.,24.0
1981-08-25 03:27:32.900 ,1,1,0.,24.0,0.,24.0
1981-08-25 03:27:56.900 ,1,0,0.,24.0,0.,24.0
1981-08-25 03:28:20.900 ,2,1,0.,24.0,0.,24.0
1981-08-25 03:28:44.900 ,2,0,0.,24.0,0.,24.0
1981-08-25 03:29:08.900 ,3,1,0.,24.0,0.,24.0
1981-08-25 03:29:32.900 ,3,0,0.,24.0,0.,24.0
1981-08-25 03:29:56.900 ,4,1,0.,24.0,0.,24.0
1981-08-25 03:30:20.900 ,4,0,0.,24.0,0.,24.0
1981-08-25 03:30:44.900 ,5,1,0.,24.0,0.,24.0
1981-08-25 03:31:08.900 ,5,0,0.,24.0,0.,24.0
1981-08-25 03:31:32.900 ,6,1,0.,24.0,0.,24.0
1981-08-25 03:31:56.900 ,6,0,0.,24.0,0.,24.0
1981-08-25 03:32:20.900 ,7,1,0.,24.0,0.,24.0
1981-08-25 03:32:44.900 ,7,0,0.,24.0,0.,24.0
1981-08-25 03:33:08.900 ,7,1,0.,24.0,0.,24.0
1981-08-25 03:33:32.900 ,7,0,0.,24.0,0.,24.0
1981-08-25 03:33:56.900 ,6,1,0.,24.0,0.,24.0
1981-08-25 03:34:20.900 ,6,0,0.,24.0,0.,24.0
1981-08-25 03:34:44.900 ,5,1,0.,24.0,0.,24.0
1981-08-25 03:35:08.900 ,5,0,0.,24.0,0.,24.0
1981-08-25 03:35:32.900 ,4,1,0.,24.0,0.,24.0
1981-08-25 03:35:56.900 ,4,0,0.,24.0,0.,24.0
1981-08-25 03:36:20.900 ,3,1,0.,24.0,0.,24.0
1981-08-25 03:36:44.900 ,3,0,0.,24.0,0.,24.0
1981-08-25 03:37:08.900 ,2,1,0.,24.0,0.,24.0
1981-08-25 03:37:32.900 ,2,0,0.,24.0,0.,24.0
1981-08-25 03:37:56.900 ,1,1,0.,24.0,0.,24.0
1981-08-25 03:38:20.900 ,1,0,0.,24.0,0.,24.0
1981-08-25 03:38:44.900 ,0,1,0.,24.0,0.,24.0
1981-08-25 03:39:08.900 ,0,0,0.,24.0,0.,24.0
1981-08-25 03:39:32.900 ,0,1,0.,24.0,0.,24.0
1981-08-25 03:39:56.900 ,0,0,0.,24.0,0.,24.0
1981-08-25 03:40:20.900 ,1,1,0.,24.0,0.,24.0
1981-08-25 03:40:44.900 ,1,0,0.,24.0,0.,24.0
1981-08-25 03:41:08.900 ,2,1,0.,24.0,0.,24.0
1981-08-25 03:41:32.900 ,2,0,0.,24.0,0.,24.0
1981-08-25 03:41:56.900 ,3,1,0.,24.0,0.,24.0
1981-08-25 03:42:20.900 ,3,0,0.,24.0,0.,24.0
1981-08-25 03:42:44.900 ,4,1,0.,24.0,0.,24.0
1981-08-25 03:43:08.900 ,4,0,0.,24.0,0.,24.0
1981-08-25 03:43:32.900 ,5,1,0.,24.0,0.,24.0
1981-08-25 03:43:56.900 ,5,0,0.,24.0,0.,24.0
1981-08-25 03:44:20.900 ,6,1,0.,24.0,0.,24.0
1981-08-25 03:44:44.900 ,6,0,0.,24.0,0.,24.0
1981-08-25 03:45:08.900 ,7,1,0.,24.0,0.,24.0
1981-08-25 03:45:32.900 ,7,0,0.,24.0,0.,24.0
1981-08-25 03:45:56.900 ,7,1,0.,24.0,0.,24.0
1981-08-25 03:46:20.900 ,7,0,0.,24.0,0.,24.0
1981-08-25 03:46:44.900 ,6,1,0.,24.0,0.,24.0
1981-08-25 03:47:08.900 ,6,0,0.,24.0,0.,24.0
1981-08-25 03:47:32.900 ,5,1,0.,24.0,0.,24.0
1981-08-25 03:47:56.900 ,5,0,0.,24.0,0.,24.0
1981-08-25 03:48:20.900 ,4,1,0.,24.0,0.,24.0
1981-08-25 03:48:44.900 ,4,0,0.,24.0,0.,24.0
1981-08-25 03:49:08.900 ,3,1,0.,24.0,0.,24.0
1981-08-25 03:49:32.900 ,3,0,0.,24.0,0.,24.0
1981-08-25 03:49:56.900 ,2,1,0.,24.0,0.,24.0
1981-08-25 03:50:20.900 ,2,0,0.,24.0,0.,24.0
1981-08-25 03:50:44.900 ,1,1,0.,24.0,0.,24.0
1981-08-25 03:51:08.900 ,1,0,0.,24.0,0.,24.0
1981-08-25 03:51:32.900 ,0,1,0.,24.0,0.,24.0
1981-08-25 03:51:56.900 ,0,0,0.,24.0,0.,24.0
1981-08-25 03:52:20.900 ,0,1,0.,24.0,0.,24.0
1981-08-25 03:52:44.900 ,0,0,0.,24.0,0.,24.0
1981-08-25 03:53:08.900 ,1,1,0.,24.0,0.,24.0
1981-08-25 03:53:32.900 ,1,0,0.,24.0,0.,24.0
1981-08-25 03:53:56.900 ,2,1,0.,24.0,0.,24.0
1981-08-25 03:54:20.900 ,2,0,0.,24.0,0.,24.0
1981-08-25 03:54:44.900 ,3,1,0.,24.0,0.,24.0
1981-08-25 03:55:08.900 ,3,0,0.,24.0,0.,24.0
1981-08-25 03:55:32.900 ,4,1,0.,24.0,0.,24.0
1981-08-25 03:55:56.900 ,4,0,0.,24.0,0.,24.0
1981-08-25 03:56:20.900 ,5,1,0.,24.0,0.,24.0
1981-08-25 03:56:44.900 ,5,0,0.,24.0,0.,24.0
1981-08-25 03:57:08.900 ,6,1,0.,24.0,0.,24.0
1981-08-25 03:57:32.900 ,6,0,0.,24.0,0.,24.0
1981-08-25 03:57:56.900 ,7,1,0.,24.0,0.,24.0
1981-08-25 03:58:20.900 ,7,0,0.,24.0,0.,24.0
1981-08-25 03:58:44.900 ,7,1,0.,24.0,0.,24.0
1981-08-25 03:59:08.900 ,7,0,0.,24.0,0.,24.0
1981-08-25 03:59:32.900 ,6,1,0.,24.0,0.,24.0
1981-08-25 03:59:56.900 ,6,0,0.,24.0,0.,24.0
1981-08-25 04:00:20.900 ,5,1,0.,24.0,0.,24.0
1981-08-25 04:00:44.900 ,5,0,0.,24.0,0.,24.0
1981-08-25 04:01:08.900 ,4,1,0.,24.0,0.,24.0
1981-08-25 04:01:32.900 ,4,0,0.,24.0,0.,24.0
1981-08-25 04:01:56.900 ,3,1,0.,24.0,0.,24.0
1981-08-25 04:02:20.900 ,3,0,0.,24.0,0.,24.0
1981-08-25 04:02:44.900 ,2,1,0.,24.0,0.,24.0
1981-08-25 04:03:08.900 ,2,0,0.,24.0,0.,24.0
1981-08-25 04:03:32.900 ,1,1,0.,24.0,0.,24.0
1981-08-25 04:03:56.900 ,1,0,0.,24.0,0.,24.0
1981-08-25 04:04:20.900 ,0,1,0.,24.0,0.,24.0
1981-08-25 04:04:44.900 ,0,0,0.,24.0,0.,24.0
1981-08-25 04:05:08.900 ,0,1,0.,24.0,0.,24.0
1981-08-25 04:05:32.900 ,0,0,0.,24.0,0.,24.0
1981-08-25 04:05:56.900 ,1,1,0.,24.0,0.,24.0
1981-08-25 04:06:20.900 ,1,0,0.,24.0,0.,24.0
1981-08-25 04:06:44.900 ,2,1,0.,24.0,0.,24.0
1981-08-25 04:07:08.900 ,2,0,0.,24.0,0.,24.0
1981-08-25 04:07:32.900 ,3,1,0.,24.0,0.,24.0
1981-08-25 04:07:56.900 ,3,0,0.,24.0,0.,24.0
1981-08-25 04:08:20.900 ,4,1,0.,24.0,0.,24.0
1981-08-25 04:08:44.900 ,4,0,0.,24.0,0.,24.0
1981-08-25 04:09:08.900 ,5,1,0.,24.0,0.,24.0
1981-08-25 04:09:32.900 ,5,0,0.,24.0,0.,24.0
1981-08-25 04:09:56.900 ,6,1,0.,24.0,0.,24.0
1981-08-25 04:10:20.900 ,6,0,0.,24.0,0.,24.0
1981-08-25 04:10:44.900 ,7,1,0.,24.0,0.,24.0
1981-08-25 04:11:08.900 ,7,0,0.,24.0,0.,24.0
1981-08-25 04:11:32.900 ,7,1,0.,24.0,0.,24.0
1981-08-25 04:11:56.900 ,7,0,0.,24.0,0.,24.0
1981-08-25 04:12:20.900 ,6,1,0.,24.0,0.,24.0
1981-08-25 04:12:44.900 ,6,0,0.,24.0,0.,24.0
1981-08-25 04:13:08.900 ,5,1,0.,24.0,0.,24.0
1981-08-25 04:13:32.900 ,5,0,0.,24.0,0.,24.0
1981-08-25 04:13:56.900 ,4,1,0.,24.0,0.,24.0
1981-08-25 04:14:20.900 ,4,0,0.,24.0,0.,24.0
1981-08-25 04:14:44.900 ,3,1,0.,24.0,0.,24.0
1981-08-25 04:15:08.900 ,3,0,0.,24.0,0.,24.0
1981-08-25 04:15:32.900 ,2,1,0.,24.0,0.,24.0
1981-08-25 04:15:56.900 ,2,0,0.,24.0,0.,24.0
1981-08-25 04:16:20.900 ,1,1,0.,24.0,0.,24.0
1981-08-25 04:16:44.900 ,1,0,0.,24.0,0.,24.0
1981-08-25 04:17:08.900 ,0,1,0.,24.0,0.,24.0
1981-08-25 04:17:32.900 ,0,0,0.,24.0,0.,24.0
1981-08-25 04:17:56.900 ,0,1,0.,24.0,0.,24.0
1981-08-25 04:18:20.900 ,0,0,0.,24.0,0.,24.0
1981-08-25 04:18:44.900 ,1,1,0.,24.0,0.,24.0
1981-08-25 04:19:08.900 ,1,0,0.,24.0,0.,24.0
1981-08-25 04:19:32.900 ,2,1,0.,24.0,0.,24.0
1981-08-25 04:19:56.900 ,2,0,0.,24.0,0.,24.0
1981-08-25 04:20:20.900 ,3,1,0.,24.0,0.,24.0
1981-08-25 04:20:44.900 ,3,0,0.,24.0,0.,24.0
1981-08-25 04:21:08.900 ,4,1,0.,24.0,0.,24.0
1981-08-25 04:21:32.900 ,4,0,0.,24.0,0.,24.0
1981-08-25 04:21:56.900 ,5,1,0.,24.0,0.,24.0
1981-08-25 04:22:20.900 ,5,0,0.,24.0,0.,24.0
1981-08-25 04:22:44.900 ,6,1,0.,24.0,0.,24.0
1981-08-25 04:23:08.900 ,6,0,0.,24.0,0.,24.0
1981-08-25 04:23:32.900 ,7,1,0.,24.0,0.,24.0
1981-08-25 04:23:56.900 ,7,0,0.,24.0,0.,24.0
1981-08-25 04:24:20.900 ,7,1,0.,24.0,0.,24.0
1981-08-25 04:24:44.900 ,7,0,0.,24.0,0.,24.0
1981-08-25 04:25:08.900 ,6,1,0.,24.0,0.,24.0
1981-08-25 04:25:32.900 ,6,0,0.,24.0,0.,24.0
1981-08-25 04:25:56.900 ,5,1,0.,24.0,0.,24.0
1981-08-25 04:26:20.900 ,5,0,0.,24.0,0.,24.0
1981-08-25 04:26:44.900 ,4,1,0.,24.0,0.,24.0
1981-08-25 04:27:08.900 ,4,0,0.,24.0,0.,24.0
1981-08-25 04:27:32.900 ,3,1,0.,24.0,0.,24.0
1981-08-25 04:27:56.900 ,3,0,0.,24.0,0.,24.0
1981-08-25 04:28:20.900 ,2,1,0.,24.0,0.,24.0
1981-08-25 04:28:44.900 ,2,0,0.,24.0,0.,24.0
1981-08-25 04:29:08.900 ,1,1,0.,24.0,0.,24.0
1981-08-25 04:29:32.900 ,1,0,0.,24.0,0.,24.0
1981-08-25 04:29:56.900 ,0,1,0.,24.0,0.,24.0
1981-08-25 04:30:20.900 ,0,0,0.,24.0,0.,24.0
1981-08-25 04:30:44.900 ,0,1,0.,24.0,0.,24.0
1981-08-25 04:31:08.900 ,0,0,0.,24.0,0.,24.0
1981-08-25 04:31:32.900 ,1,1,0.,24.0,0.,24.0
1981-08-25 04:31:56.900 ,1,0,0.,24.0,0.,24.0
1981-08-25 04:32:20.900 ,2,1,0.,24.0,0.,24.0
1981-08-25 04:32:44.900 ,2,0,0.,24.0,0.,24.0
1981-08-25 04:33:08.900 ,3,1,0.,24.0,0.,24.0
1981-08-25 04:33:32.900 ,3,0,0.,24.0,0.,24.0
1981-08-25 04:33:56.890 ,4,1,0.,24.0,0.,24.0
1981-08-25 04:34:20.890 ,4,0,0.,24.0,0.,24.0
1981-08-25 04:34:44.890 ,5,1,0.,24.0,0.,24.0
1981-08-25 04:35:08.890 ,5,0,0.,24.0,0.,24.0
1981-08-25 04:35:32.890 ,6,1,0.,24.0,0.,24.0
1981-08-25 04:35:56.890 ,6,0,0.,24.0,0.,24.0
1981-08-25 04:36:20.890 ,7,1,0.,24.0,0.,24.0
1981-08-25 04:36:44.890 ,7,0,0.,24.0,0.,24.0
1981-08-25 04:37:08.890 ,7,1,0.,24.0,0.,24.0
1981-08-25 04:37:32.890 ,7,0,0.,24.0,0.,24.0
1981-08-25 04:37:56.890 ,6,1,0.,24.0,0.,24.0
1981-08-25 04:38:20.890 ,6,0,0.,24.0,0.,24.0
1981-08-25 04:38:44.890 ,5,1,0.,24.0,0.,24.0
1981-08-25 04:39:08.890 ,5,0,0.,24.0,0.,24.0
1981-08-25 04:39:32.890 ,4,1,0.,24.0,0.,24.0
1981-08-25 04:39:56.890 ,4,0,0.,24.0,0.,24.0
1981-08-25 04:40:20.890 ,3,1,0.,24.0,0.,24.0
1981-08-25 04:40:44.890 ,3,0,0.,24.0,0.,24.0
1981-08-25 04:41:08.890 ,2,1,0.,24.0,0.,24.0
1981-08-25 04:41:32.890 ,2,0,0.,24.0,0.,24.0
1981-08-25 04:41:56.890 ,1,1,0.,24.0,0.,24.0
1981-08-25 04:42:20.890 ,1,0,0.,24.0,0.,24.0
1981-08-25 04:42:44.890 ,0,1,0.,24.0,0.,24.0
1981-08-25 04:43:08.890 ,0,0,,0,,0
1981-08-25 04:43:32.890 ,0,1,0.,24.0,0.,24.0
1981-08-25 04:43:56.890 ,0,0,0.,24.0,0.,24.0
1981-08-25 04:44:20.890 ,1,1,0.,24.0,0.,24.0
1981-08-25 04:44:44.890 ,1,0,0.,24.0,0.,24.0
1981-08-25 04:45:08.890 ,2,1,0.,24.0,0.,24.0
1981-08-25 04:45:32.890 ,2,0,0.,24.0,0.,24.0
1981-08-25 04:45:56.890 ,3,1,0.,24.0,0.,24.0
1981-08-25 04:46:20.890 ,3,0,0.,24.0,0.,24.0
1981-08-25 04:46:44.890 ,4,1,0.,24.0,0.,24.0
1981-08-25 04:47:08.890 ,4,0,0.,24.0,0.,24.0
1981-08-25 04:47:32.890 ,5,1,0.,24.0,0.,24.0
1981-08-25 04:47:56.890 ,5,0,0.,24.0,0.,24.0
1981-08-25 04:48:20.890 ,6,1,0.,24.0,0.,24.0
1981-08-25 04:48:44.890 ,6,0,0.,24.0,0.,24.0
1981-08-25 04:49:08.890 ,7,1,0.,24.0,0.,24.0
1981-08-25 04:49:32.890 ,7,0,0.,24.0,0.,24.0
1981-08-25 04:49:56.890 ,7,1,0.,24.0,0.,24.0
1981-08-25 04:50:20.890 ,7,0,0.,24.0,0.,24.0
1981-08-25 04:50:44.890 ,6,1,0.,24.0,0.,24.0
1981-08-25 04:51:08.890 ,6,0,0.,24.0,0.,24.0
1981-08-25 04:51:32.890 ,5,1,0.,24.0,0.,24.0
1981-08-25 04:51:56.890 ,5,0,0.,24.0,0.,24.0
1981-08-25 04:52:20.890 ,4,1,0.,24.0,0.,24.0
1981-08-25 04:52:44.890 ,4,0,0.,24.0,0.,24.0
1981-08-25 04:53:08.890 ,3,1,0.,24.0,0.,24.0
1981-08-25 04:53:32.890 ,3,0,0.,24.0,0.,24.0
1981-08-25 04:53:56.890 ,2,1,0.,24.0,0.,24.0
1981-08-25 04:54:20.890 ,2,0,0.,24.0,0.,24.0
1981-08-25 04:54:44.890 ,1,1,0.,24.0,0.,24.0
1981-08-25 04:55:08.890 ,1,0,0.,24.0,0.,24.0
1981-08-25 04:55:32.890 ,0,1,0.,24.0,0.,24.0
1981-08-25 04:55:56.890 ,0,0,0.,24.0,0.,24.0
1981-08-25 04:56:20.890 ,0,1,0.,24.0,0.,24.0
1981-08-25 04:56:44.890 ,0,0,0.,24.0,0.,24.0
1981-08-25 04:57:08.890 ,1,1,0.,24.0,0.,24.0
1981-08-25 04:57:32.890 ,1,0,0.,24.0,0.,24.0
1981-08-25 04:57:56.890 ,2,1,0.,24.0,0.,24.0
1981-08-25 04:58:20.890 ,2,0,0.,24.0,0.,24.0
1981-08-25 04:58:44.890 ,3,1,0.,24.0,0.,24.0
1981-08-25 04:59:08.890 ,3,0,0.,24.0,0.,24.0
1981-08-25 04:59:32.890 ,4,1,0.,24.0,0.,24.0
1981-08-25 04:59:56.890 ,4,0,0.,24.0,0.,24.0
1981-08-25 05:00:20.890 ,5,1,0.,24.0,0.,24.0
1981-08-25 05:00:44.890 ,5,0,0.,24.0,0.,24.0
1981-08-25 05:01:08.890 ,6,1,0.,24.0,0.,24.0
1981-08-25 05:01:32.890 ,6,0,0.,24.0,0.,24.0
1981-08-25 05:01:56.890 ,7,1,0.,24.0,0.,24.0
1981-08-25 05:02:20.890 ,7,0,0.,24.0,0.,24.0
1981-08-25 05:02:44.890 ,7,1,0.,24.0,0.,24.0
1981-08-25 05:03:08.890 ,7,0,0.,24.0,0.,24.0
1981-08-25 05:03:32.890 ,6,1,0.,24.0,0.,24.0
1981-08-25 05:03:56.890 ,6,0,0.,24.0,0.,24.0
1981-08-25 05:04:20.890 ,5,1,0.,24.0,0.,24.0
1981-08-25 05:04:44.890 ,5,0,0.,24.0,0.,24.0
1981-08-25 05:05:08.890 ,4,1,0.,24.0,0.,24.0
1981-08-25 05:05:32.890 ,4,0,0.,24.0,0.,24.0
1981-08-25 05:05:56.890 ,3,1,0.,24.0,0.,24.0
1981-08-25 05:06:20.890 ,3,0,0.,24.0,0.,24.0
1981-08-25 05:06:44.890 ,2,1,0.,24.0,0.,24.0
1981-08-25 05:07:08.890 ,2,0,0.,24.0,0.,24.0
1981-08-25 05:07:32.890 ,1,1,0.,24.0,0.,24.0
1981-08-25 05:07:56.890 ,1,0,0.,24.0,0.,24.0
1981-08-25 05:08:20.890 ,0,1,0.,24.0,0.,24.0
1981-08-25 05:08:44.890 ,0,0,0.,24.0,0.,24.0
1981-08-25 05:09:08.890 ,0,1,0.,24.0,0.,24.0
1981-08-25 05:09:32.890 ,0,0,0.,24.0,0.,24.0
1981-08-25 05:09:56.890 ,1,1,0.,24.0,0.,24.0
1981-08-25 05:10:20.890 ,1,0,0.,24.0,0.,24.0
1981-08-25 05:10:44.890 ,2,1,0.,24.0,0.,24.0
1981-08-25 05:11:08.890 ,2,0,0.,24.0,0.,24.0
1981-08-25 05:11:32.890 ,3,1,0.,24.0,0.,24.0
1981-08-25 05:11:56.890 ,3,0,0.,24.0,0.,24.0
1981-08-25 05:12:20.890 ,4,1,0.,24.0,0.,24.0
1981-08-25 05:12:44.890 ,4,0,0.,24.0,0.,24.0
1981-08-25 05:13:08.890 ,5,1,0.,24.0,0.,24.0
1981-08-25 05:13:32.890 ,5,0,0.,24.0,0.,24.0
1981-08-25 05:13:56.890 ,6,1,0.,24.0,0.,24.0
1981-08-25 05:14:20.890 ,6,0,0.,24.0,0.,24.0
1981-08-25 05:14:44.890 ,7,1,0.,24.0,0.,24.0
1981-08-25 05:15:08.890 ,7,0,0.,24.0,0.,24.0
1981-08-25 05:15:32.890 ,7,1,0.,24.0,0.,24.0
1981-08-25 05:15:56.890 ,7,0,0.,24.0,0.,24.0
1981-08-25 05:16:20.890 ,6,1,0.,24.0,0.,24.0
1981-08-25 05:16:44.890 ,6,0,0.,24.0,0.,24.0
1981-08-25 05:17:08.890 ,5,1,0.,24.0,0.,24.0
1981-08-25 05:17:32.890 ,5,0,0.,24.0,0.,24.0
1981-08-25 05:17:56.890 ,4,1,0.,24.0,0.,24.0
1981-08-25 05:18:20.890 ,4,0,0.,24.0,0.,24.0
1981-08-25 05:18:44.890 ,3,1,0.,24.0,0.,24.0
1981-08-25 05:19:08.890 ,3,0,0.,24.0,0.,24.0
1981-08-25 05:19:32.890 ,2,1,0.,24.0,0.,24.0
1981-08-25 05:19:56.890 ,2,0,0.,24.0,0.,24.0
1981-08-25 05:20:20.890 ,1,1,0.,24.0,0.,24.0
1981-08-25 05:20:44.890 ,1,0,0.,24.0,0.,24.0
1981-08-25 05:21:08.890 ,0,1,0.,24.0,0.,24.0
1981-08-25 05:21:32.890 ,0,0,0.,24.0,0.,24.0
1981-08-25 05:21:56.890 ,0,1,0.,24.0,0.,24.0
1981-08-25 05:22:20.890 ,0,0,0.,24.0,0.,24.0
1981-08-25 05:22:44.890 ,1,1,0.,24.0,0.,24.0
1981-08-25 05:23:08.890 ,1,0,0.,24.0,0.,24.0
1981-08-25 05:23:32.890 ,2,1,0.,24.0,0.,24.0
1981-08-25 05:23:56.890 ,2,0,0.,24.0,0.,24.0
1981-08-25 05:24:20.890 ,3,1,0.,24.0,0.,24.0
1981-08-25 05:24:44.890 ,3,0,0.,24.0,0.,24.0
1981-08-25 05:25:08.890 ,4,1,0.,24.0,0.,24.0
1981-08-25 05:25:32.890 ,4,0,0.,24.0,0.,24.0
1981-08-25 05:25:56.890 ,5,1,0.,24.0,0.,24.0
1981-08-25 05:26:20.890 ,5,0,0.,24.0,0.,24.0
1981-08-25 05:26:44.890 ,6,1,0.,24.0,0.,24.0
1981-08-25 05:27:08.890 ,6,0,0.,24.0,0.,24.0
1981-08-25 05:27:32.890 ,7,1,0.,24.0,0.,24.0
1981-08-25 05:27:56.890 ,7,0,0.,24.0,0.,24.0
1981-08-25 05:28:20.890 ,7,1,0.,24.0,0.,24.0
1981-08-25 05:28:44.890 ,7,0,0.,24.0,0.,24.0
1981-08-25 05:29:08.890 ,6,1,0.,24.0,0.,24.0
1981-08-25 05:29:32.890 ,6,0,0.,24.0,0.,24.0
1981-08-25 05:29:56.890 ,5,1,0.,24.0,0.,24.0
1981-08-25 05:30:20.890 ,5,0,0.,24.0,0.,24.0
1981-08-25 05:30:44.890 ,4,1,0.,24.0,0.,24.0
1981-08-25 05:31:08.890 ,4,0,0.,24.0,0.,24.0
1981-08-25 05:31:32.890 ,3,1,0.,24.0,0.,24.0
1981-08-25 05:31:56.890 ,3,0,0.,24.0,0.,24.0
1981-08-25 05:32:20.890 ,2,1,0.,24.0,0.,24.0
1981-08-25 05:32:44.890 ,2,0,0.,24.0,0.,24.0
1981-08-25 05:33:08.890 ,1,1,0.,24.0,0.,24.0
1981-08-25 05:33:32.890 ,1,0,0.,24.0,0.,24.0
1981-08-25 05:33:56.890 ,0,1,0.,24.0,0.,24.0
1981-08-25 05:34:20.890 ,0,0,0.,24.0,0.,24.0
1981-08-25 05:34:44.890 ,0,1,0.,24.0,0.,24.0
1981-08-25 05:35:08.890 ,0,0,0.,24.0,0.,24.0
1981-08-25 05:36:20.890 ,0,0,0.,24.0,0.,24.0
1981-08-25 05:36:44.890 ,0,0,0.,24.0,0.,24.0
1981-08-25 05:36:44.890 ,0,0,0.,24.0,0.,24.0
1981-08-25 05:37:08.890 ,3,1,0.,24.0,0.,24.0
1981-08-25 05:37:32.890 ,3,0,0.,24.0,0.,24.0
1981-08-25 05:37:56.890 ,4,1,0.,24.0,0.,24.0
1981-08-25 05:38:20.890 ,0,0,0.,24.0,0.,24.0
1981-08-25 05:41:21.490 ,0,0,0.,24.0,0.,24.0
1981-08-25 05:41:32.890 ,0,0,0.,24.0,0.,24.0
1981-08-25 05:41:56.890 ,6,1,0.,24.0,0.,24.0
1981-08-25 05:42:20.890 ,6,0,0.,24.0,0.,24.0
1981-08-25 05:42:44.890 ,5,1,0.,24.0,0.,24.0
1981-08-25 05:43:08.890 ,5,0,0.,24.0,0.,24.0
1981-08-25 05:43:32.890 ,4,1,0.,24.0,0.,24.0
1981-08-25 05:43:56.890 ,4,0,0.,24.0,0.,24.0
1981-08-25 05:44:20.890 ,3,1,0.,24.0,0.,24.0
1981-08-25 05:44:44.890 ,3,0,0.,24.0,0.,24.0
1981-08-25 05:45:08.890 ,2,1,0.,24.0,0.,24.0
1981-08-25 05:45:32.890 ,2,0,0.,24.0,0.,24.0
1981-08-25 05:45:56.890 ,1,1,0.,24.0,0.,24.0
1981-08-25 05:46:20.890 ,1,0,0.,24.0,0.,24.0
1981-08-25 05:46:44.890 ,0,1,0.,24.0,0.,24.0
1981-08-25 05:47:08.890 ,0,0,0.,24.0,0.,24.0
1981-08-25 05:47:32.890 ,0,1,0.,24.0,0.,24.0
1981-08-25 05:47:56.890 ,0,0,0.,24.0,0.,24.0
1981-08-25 05:48:20.890 ,1,1,0.,24.0,0.,24.0
1981-08-25 05:48:44.890 ,1,0,0.,24.0,0.,24.0
1981-08-25 05:49:08.890 ,2,1,0.,24.0,0.,24.0
1981-08-25 05:49:32.890 ,2,0,0.,24.0,0.,24.0
1981-08-25 05:49:56.890 ,3,1,0.,24.0,0.,24.0
1981-08-25 05:50:20.890 ,3,0,0.,24.0,0.,24.0
1981-08-25 05:50:44.890 ,4,1,0.,24.0,0.,24.0
1981-08-25 05:51:08.890 ,4,0,0.,24.0,0.,24.0
1981-08-25 05:51:32.890 ,5,1,0.,24.0,0.,24.0
1981-08-25 05:51:56.890 ,5,0,0.,24.0,0.,24.0
1981-08-25 05:52:20.890 ,6,1,0.,24.0,0.,24.0
1981-08-25 05:52:44.890 ,6,0,0.,24.0,0.,24.0
1981-08-25 05:53:08.890 ,7,1,0.,24.0,0.,24.0
1981-08-25 05:53:32.890 ,7,0,0.,24.0,0.,24.0
1981-08-25 05:53:56.890 ,7,1,0.,24.0,0.,24.0
1981-08-25 05:54:20.890 ,7,0,0.,24.0,0.,24.0
1981-08-25 05:54:44.890 ,6,1,0.,24.0,0.,24.0
1981-08-25 05:55:08.890 ,6,0,0.,24.0,0.,24.0
1981-08-25 05:55:32.890 ,5,1,0.,24.0,0.,24.0
1981-08-25 05:55:56.890 ,5,0,0.,24.0,0.,24.0
1981-08-25 05:56:20.890 ,4,1,0.,24.0,0.,24.0
1981-08-25 05:56:44.890 ,4,0,0.,24.0,0.,24.0
1981-08-25 05:57:08.890 ,3,1,0.,24.0,0.,24.0
1981-08-25 05:57:32.890 ,3,0,0.,24.0,0.,24.0
1981-08-25 05:57:56.890 ,2,1,0.,24.0,0.,24.0
1981-08-25 05:58:20.890 ,2,0,0.,24.0,0.,24.0
1981-08-25 05:58:44.890 ,1,1,0.,24.0,0.,24.0
1981-08-25 05:59:08.890 ,1,0,0.,24.0,0.,24.0
1981-08-25 05:59:32.890 ,0,1,0.,24.0,0.,24.0
1981-08-25 05:59:56.890 ,0,0,0.,24.0,0.,24.0
1981-08-25 06:00:20.890 ,0,1,0.,24.0,0.,24.0
